Wind_Speed
24 22 21 19 18 17 16 15 13 11 10 11 11 12 11 11 9 9 9 9 9 9 9 9 9 10 10 11 11 12 12 11 10 9 9 7 6 4 3 3 3 1 1 1
25 22 21 22 21 20 19 17 16 13 12 12 13 13 13 12 11 10 9 8 8 8 8 9 10 8 9 10 11 11 11 10 9 9 8 7 5 4 4 4 3 2 2 2
25 23 24 24 23 21 20 20 18 16 13 13 14 14 14 14 12 10 10 9 8 8 9 10 10 10 9 9 10 10 10 10 9 8 8 7 6 5 5 5 5 4 4 4
27 26 26 25 24 23 21 20 20 18 16 16 16 16 13 14 13 10 10 10 9 9 10 10 10 10 10 9 10 10 10 10 9 8 7 6 6 5 6 6 5 5 5 6
28 28 27 26 24 23 21 21 21 20 19 17 17 18 15 15 13 11 11 12 11 10 10 11 10 10 10 10 10 10 10 10 9 8 7 6 6 6 6 6 5 6 6 6
29 29 29 27 25 24 24 24 24 23 22 20 18 20 18 16 14 13 13 12 12 11 11 11 10 10 10 10 10 10 10 9 8 8 7 7 6 6 7 6 6 6 6 6
31 31 30 28 28 27 26 26 26 25 24 22 20 20 17 15 14 13 13 13 12 11 11 11 11 10 10 10 10 10 9 9 9 8 7 7 8 8 8 8 8 7 6 6
31 31 30 29 29 28 28 27 27 26 25 21 20 20 16 14 14 14 14 13 12 11 12 12 12 11 10 11 11 10 9 8 9 9 8 8 9 9 9 9 8 8 8 8
31 30 29 29 29 29 28 28 27 27 26 23 20 17 15 15 14 14 14 14 13 12 12 13 13 11 11 12 12 9 9 8 9 9 9 9 9 9 9 9 9 9 9 10
31 30 30 29 29 28 28 28 28 28 27 25 21 18 16 14 15 14 15 15 14 14 13 13 13 12 12 13 12 10 9 9 9 9 10 10 9 10 11 10 10 10 11 11
32 31 30 30 30 28 28 29 29 28 28 26 23 21 18 16 16 16 15 16 16 15 14 14 13 13 13 14 12 11 11 10 10 10 10 10 10 11 11 11 11 12 12 11
32 32 31 30 28 27 27 27 28 29 29 28 25 22 20 18 17 17 16 16 16 15 14 14 14 14 15 14 13 12 12 12 11 11 11 11 11 11 12 13 13 13 12 11
33 33 31 31 30 29 29 28 28 29 30 30 28 24 20 19 18 18 18 17 16 16 16 16 15 14 14 15 15 14 14 13 13 12 12 12 12 12 12 13 14 13 13 11
33 33 32 31 30 29 29 29 29 30 31 30 29 26 23 21 21 19 18 17 17 17 17 17 15 15 15 15 15 15 15 15 14 14 14 14 13 13 14 14 14 14 12 11
34 35 33 31 29 29 29 28 28 29 29 29 28 27 25 23 23 20 19 19 18 18 17 16 15 16 15 15 15 15 16 15 15 15 15 16 15 15 15 15 15 14 13 12
34 35 34 33 31 31 30 30 29 29 29 29 28 27 26 25 25 24 22 21 20 19 17 16 16 16 16 16 16 16 16 16 16 16 16 16 16 16 16 15 14 14 13 13
35 34 34 34 33 32 31 29 29 28 29 29 28 27 27 28 26 24 24 23 21 20 18 18 17 17 17 16 16 16 16 15 16 16 15 16 16 16 16 14 13 13 13 13
35 35 34 34 35 35 30 29 29 28 28 28 28 27 27 27 26 25 25 24 22 21 20 19 18 17 16 16 16 15 15 15 15 14 14 15 16 16 15 14 13 14 14 14
34 34 34 35 36 35 31 31 31 29 29 28 27 27 27 26 26 25 24 24 22 20 19 18 18 16 16 15 15 15 14 14 14 14 13 13 14 15 15 14 14 14 14 14
33 33 35 36 36 36 33 32 31 30 30 29 28 27 28 27 27 25 23 22 20 19 17 17 16 16 15 15 14 14 14 13 13 13 13 13 13 13 13 13 13 13 13 13
34 34 35 36 36 35 32 34 33 33 30 28 28 28 28 29 28 26 24 22 20 18 17 17 16 16 16 15 15 15 14 14 13 13 13 13 12 12 12 11 12 12 13 14
36 34 35 35 36 33 32 33 34 32 29 28 28 28 28 28 29 27 25 23 22 19 19 18 17 16 16 15 15 15 15 15 14 14 14 14 13 13 12 12 12 12 13 14
35 35 35 35 34 31 32 33 33 32 30 30 30 29 27 27 28 26 26 25 22 21 20 18 17 17 17 17 16 16 16 16 16 15 15 15 14 13 13 12 13 13 14 15
35 35 34 35 34 33 32 33 33 33 32 29 28 28 28 27 26 26 26 24 23 21 20 19 18 18 18 18 17 17 17 16 15 15 16 15 15 14 14 14 15 15 16 15
35 34 34 33 33 32 33 33 34 33 32 30 28 28 27 27 26 26 25 25 23 22 21 19 19 18 18 18 17 16 16 16 16 16 16 16 15 15 16 16 16 16 15 16
34 33 34 33 32 32 32 33 33 33 31 29 28 27 27 26 26 26 25 25 23 22 21 21 20 19 18 18 17 17 17 16 16 17 17 16 16 16 16 16 15 15 15 16
Wind_Direction
219 218 218 219 219 216 216 212 208 210 227 251 269 286 292 299 309 325 339 343 347 354 0 4 5 9 13 16 16 15 15 17 19 17 16 20 27 30 38 31 14 343 308 297
221 219 218 219 219 218 217 214 209 212 226 246 261 273 283 292 302 314 325 335 343 353 355 353 359 358 1 5 6 5 4 7 9 11 11 13 15 20 17 9 346 312 281 274
222 219 220 220 220 220 217 212 210 215 224 241 252 258 268 280 291 305 317 328 333 341 339 341 347 353 353 356 357 356 356 360 359 359 3 4 3 359 350 351 343 322 283 281
220 220 222 222 221 222 219 215 212 216 227 240 252 259 258 266 278 291 306 310 318 324 326 328 337 341 341 341 345 347 348 352 354 351 352 357 353 341 342 343 337 324 297 282
220 222 224 224 222 222 221 219 216 219 228 236 244 253 251 257 268 282 298 305 308 312 316 315 322 329 329 330 334 338 342 346 350 348 348 349 347 343 339 337 330 321 307 290
220 222 224 225 224 222 221 220 219 222 227 232 238 248 250 254 266 277 283 293 296 300 307 309 312 315 319 321 322 327 333 339 344 347 350 352 350 347 339 333 325 316 308 296
222 224 225 224 223 223 222 222 221 223 228 232 237 247 255 257 263 271 276 283 288 296 304 307 305 303 307 308 311 318 323 331 334 337 340 346 348 346 338 330 326 319 306 297
224 224 225 225 225 224 225 226 226 227 231 234 238 245 251 251 257 265 271 277 284 291 303 302 303 301 299 300 301 306 310 317 325 331 333 334 339 340 336 332 329 321 310 302
224 224 224 225 225 224 225 226 227 228 230 231 231 240 246 250 257 261 266 275 285 293 298 299 299 301 299 301 301 297 303 314 321 323 324 326 328 329 329 327 324 321 314 310
222 223 222 223 224 222 223 224 225 226 226 227 230 237 242 249 258 260 263 274 285 291 297 300 297 294 291 297 298 287 291 304 313 315 317 319 317 320 324 323 319 313 312 308
220 221 219 221 223 221 220 222 223 225 225 225 228 231 236 248 260 263 266 273 282 285 294 297 292 286 288 289 290 284 288 295 302 306 309 310 311 313 316 316 312 309 308 304
217 219 219 221 223 222 221 223 224 224 224 226 230 230 234 246 253 258 265 271 278 278 286 290 289 285 286 286 285 286 286 288 292 297 299 302 303 305 308 311 310 307 308 300
215 218 217 218 221 220 220 220 222 224 224 226 229 230 233 243 250 257 264 269 272 275 280 284 284 284 286 284 284 285 289 291 291 291 292 295 295 296 300 305 308 305 304 301
215 218 219 221 223 224 224 222 223 223 223 225 229 230 233 243 250 255 263 272 275 276 278 278 280 284 285 281 280 283 287 289 291 290 290 293 292 292 294 297 299 298 296 296
212 216 218 220 221 222 224 223 223 224 225 227 228 230 232 240 247 253 261 270 278 282 282 282 282 280 280 278 278 281 285 286 288 290 290 291 291 289 289 291 292 294 292 289
211 214 216 217 218 219 221 220 222 223 223 225 226 226 229 237 246 252 259 269 278 281 282 285 283 281 280 276 277 279 283 287 291 292 290 288 286 286 287 285 284 287 289 290
211 212 213 215 217 219 220 219 220 222 224 225 225 225 227 235 244 251 260 268 275 278 280 283 283 283 280 276 279 280 282 286 289 289 288 284 283 285 288 284 283 287 288 290
212 212 213 213 215 219 220 219 221 224 224 224 226 226 230 236 244 254 261 266 272 278 277 281 282 281 280 279 280 282 284 286 289 290 289 288 288 290 292 290 286 288 289 292
213 214 213 213 217 220 219 218 219 224 226 227 227 227 233 239 246 252 259 266 272 277 279 278 280 276 276 277 279 283 286 288 291 294 293 299 296 295 296 289 286 289 290 294
214 215 215 216 218 219 216 217 220 225 228 228 228 229 233 240 245 250 258 263 267 272 276 277 277 276 274 275 278 283 285 287 290 295 300 303 301 298 297 295 293 290 293 297
217 217 218 218 219 219 217 217 220 225 229 230 231 232 235 239 244 249 253 258 264 269 272 276 277 275 275 277 279 282 285 286 290 296 301 302 304 300 298 299 301 298 299 301
221 221 220 219 219 218 216 216 221 227 228 229 230 234 238 242 246 248 252 257 263 268 270 272 275 275 275 277 278 280 283 284 288 293 298 300 301 299 298 300 302 302 305 305
221 221 221 222 220 217 218 219 223 226 227 228 230 234 239 244 248 248 252 256 261 266 268 270 272 274 275 276 278 281 280 282 286 289 294 297 297 295 297 300 302 302 305 308
222 221 221 222 219 217 217 220 223 227 229 230 231 234 239 243 245 246 248 253 258 263 265 266 268 271 274 278 279 282 282 281 282 286 291 294 295 294 294 299 301 302 303 306
221 222 222 222 220 219 219 220 224 227 230 232 233 235 238 242 244 246 247 251 255 259 261 264 267 271 273 276 279 282 283 280 282 285 288 291 293 294 294 298 300 301 302 304
219 220 221 221 221 221 220 221 225 227 228 231 235 236 237 238 242 244 246 250 255 259 259 262 266 268 270 274 278 281 281 280 283 286 290 290 293 295 295 295 298 299 300 303
Height
5911 5915 5918 5922 5924 5927 5928 5929 5931 5932 5934 5934 5935 5935 5936 5937 5937 5937 5936 5936 5935 5934 5933 5932 5930 5929 5927 5926 5924 5923 5921 5919 5918 5917 5915 5914 5913 5913 5912 5912 5912 5912 5912 5912
5907 5912 5915 5917 5920 5922 5925 5926 5928 5930 5931 5932 5933 5934 5934 5935 5936 5936 5935 5935 5934 5933 5933 5932 5930 5928 5927 5926 5925 5923 5921 5919 5918 5917 5915 5914 5913 5912 5912 5911 5911 5911 5911 5911
5903 5909 5910 5912 5915 5919 5921 5924 5926 5927 5928 5929 5931 5932 5933 5933 5933 5934 5934 5934 5934 5933 5932 5932 5931 5929 5927 5926 5925 5923 5921 5919 5918 5916 5915 5914 5913 5912 5911 5910 5910 5909 5909 5909
5897 5902 5905 5908 5911 5915 5918 5921 5923 5924 5926 5927 5929 5929 5931 5930 5931 5931 5932 5932 5933 5932 5931 5931 5930 5929 5927 5926 5924 5923 5921 5919 5917 5915 5914 5913 5912 5911 5910 5909 5908 5908 5908 5908
5893 5897 5900 5904 5908 5911 5915 5918 5919 5921 5922 5924 5925 5926 5928 5928 5929 5930 5930 5930 5931 5931 5930 5929 5929 5928 5926 5924 5923 5921 5920 5918 5916 5915 5913 5912 5911 5910 5909 5908 5907 5907 5906 5906
5887 5891 5894 5899 5903 5907 5910 5913 5915 5917 5918 5920 5922 5923 5924 5925 5926 5927 5928 5928 5929 5928 5928 5927 5927 5926 5925 5923 5921 5920 5918 5917 5915 5914 5913 5911 5910 5909 5908 5907 5906 5905 5904 5904
5881 5885 5889 5894 5897 5901 5905 5908 5911 5913 5914 5916 5918 5919 5921 5923 5924 5924 5925 5926 5926 5926 5926 5926 5925 5924 5923 5922 5921 5919 5918 5916 5915 5913 5912 5910 5909 5908 5907 5905 5904 5903 5902 5902
5875 5880 5884 5888 5892 5896 5899 5903 5907 5909 5911 5913 5915 5915 5918 5919 5919 5920 5921 5922 5923 5924 5924 5923 5923 5921 5921 5920 5919 5918 5916 5914 5913 5912 5910 5909 5908 5907 5905 5904 5902 5901 5900 5900
5869 5874 5879 5883 5886 5891 5894 5897 5902 5904 5906 5909 5910 5912 5913 5914 5915 5917 5917 5918 5920 5920 5921 5920 5919 5919 5919 5918 5917 5916 5915 5913 5912 5910 5909 5907 5906 5905 5904 5902 5901 5900 5898 5898
5862 5868 5873 5877 5881 5885 5889 5893 5896 5898 5901 5904 5906 5907 5910 5910 5911 5913 5914 5915 5915 5916 5917 5917 5916 5916 5916 5915 5914 5914 5913 5911 5910 5909 5907 5905 5904 5903 5902 5901 5899 5898 5896 5895
5856 5862 5867 5870 5874 5879 5884 5887 5890 5894 5896 5899 5902 5906 5907 5907 5908 5909 5910 5911 5912 5912 5913 5913 5913 5913 5912 5911 5911 5910 5909 5908 5907 5906 5905 5903 5902 5901 5900 5898 5897 5895 5893 5892
5850 5855 5860 5865 5870 5875 5878 5882 5885 5889 5892 5895 5897 5903 5903 5904 5905 5906 5908 5908 5909 5909 5910 5910 5909 5909 5908 5907 5907 5907 5906 5905 5904 5903 5902 5901 5899 5898 5897 5895 5893 5892 5890 5888
5845 5849 5854 5859 5865 5868 5871 5876 5880 5883 5887 5889 5892 5898 5899 5900 5901 5903 5904 5904 5905 5905 5906 5906 5906 5905 5905 5904 5904 5903 5902 5901 5900 5900 5899 5898 5896 5895 5894 5892 5890 5889 5887 5886
5840 5844 5850 5854 5858 5863 5866 5871 5874 5877 5880 5884 5888 5892 5894 5896 5897 5898 5899 5900 5901 5902 5902 5901 5901 5901 5901 5901 5900 5900 5899 5898 5897 5896 5895 5894 5893 5891 5890 5889 5887 5885 5884 5883
5834 5839 5844 5849 5853 5857 5861 5865 5869 5872 5876 5880 5884 5887 5890 5891 5893 5894 5895 5896 5897 5898 5898 5898 5898 5898 5898 5897 5896 5896 5895 5894 5892 5892 5891 5890 5888 5887 5886 5885 5884 5882 5881 5879
5828 5833 5839 5844 5847 5851 5855 5859 5863 5867 5871 5874 5878 5881 5885 5886 5888 5890 5891 5892 5893 5894 5894 5894 5894 5894 5893 5893 5892 5891 5891 5890 5888 5888 5886 5885 5884 5883 5882 5881 5880 5878 5877 5876
5822 5828 5833 5838 5842 5845 5849 5854 5858 5862 5865 5869 5873 5877 5880 5881 5883 5885 5887 5888 5890 5890 5890 5890 5890 5890 5889 5888 5888 5888 5887 5886 5885 5883 5881 5880 5879 5878 5877 5876 5875 5874 5873 5872
5817 5822 5828 5833 5838 5840 5847 5850 5853 5857 5860 5864 5868 5872 5875 5878 5879 5880 5882 5884 5885 5886 5885 5886 5886 5885 5885 5884 5884 5883 5883 5882 5880 5879 5877 5876 5875 5874 5873 5872 5871 5870 5869 5868
5813 5818 5822 5827 5831 5835 5841 5845 5848 5851 5855 5859 5863 5866 5869 5872 5874 5876 5877 5879 5881 5881 5881 5881 5880 5880 5880 5880 5879 5879 5878 5878 5877 5875 5873 5873 5872 5871 5869 5868 5867 5866 5865 5864
5807 5812 5818 5821 5825 5829 5837 5841 5844 5848 5850 5854 5858 5861 5864 5867 5869 5872 5873 5875 5876 5876 5877 5877 5876 5876 5875 5875 5875 5875 5874 5874 5873 5872 5870 5870 5868 5867 5866 5864 5863 5862 5861 5860
5801 5806 5810 5815 5819 5824 5831 5835 5839 5842 5846 5850 5853 5857 5859 5862 5865 5867 5869 5870 5870 5871 5872 5873 5872 5872 5872 5871 5871 5871 5870 5870 5869 5868 5868 5866 5865 5864 5862 5861 5860 5859 5858 5857
5795 5800 5805 5809 5814 5821 5825 5829 5833 5837 5841 5844 5848 5851 5854 5857 5859 5861 5863 5865 5866 5867 5868 5868 5868 5868 5867 5867 5867 5867 5866 5866 5865 5865 5864 5863 5862 5860 5859 5858 5857 5856 5854 5853
5789 5795 5800 5805 5811 5816 5820 5823 5827 5831 5836 5839 5842 5846 5848 5851 5853 5855 5858 5860 5861 5862 5863 5863 5863 5863 5863 5863 5862 5862 5861 5861 5861 5860 5860 5859 5858 5856 5855 5854 5853 5852 5850 5849
5783 5789 5793 5798 5804 5809 5813 5817 5821 5826 5830 5833 5836 5840 5843 5846 5847 5850 5852 5854 5856 5857 5858 5858 5858 5858 5858 5858 5858 5857 5857 5857 5856 5856 5855 5855 5854 5852 5851 5850 5849 5848 5846 5845
5778 5783 5787 5792 5798 5803 5808 5812 5816 5820 5824 5827 5830 5834 5837 5840 5842 5845 5847 5849 5850 5852 5852 5852 5853 5853 5853 5853 5853 5853 5852 5852 5852 5852 5851 5851 5849 5848 5847 5846 5844 5843 5842 5841
5772 5777 5782 5787 5793 5798 5803 5807 5811 5815 5819 5822 5824 5828 5831 5834 5837 5839 5841 5843 5844 5846 5846 5847 5848 5848 5848 5848 5848 5848 5848 5848 5848 5847 5847 5846 5845 5843 5842 5841 5840 5839 5838 5836